Regional Weather Roundup
Issued by NWS

Home | Current Version | Previous Version | Graphics & Text | Print | Product List | Glossary On
Versions: 1 2 3 4 5 6 7 8 9 10 11 12 13 14 15 16 17 18 19 20 21 22 23 24 25 26 27 28 29 30 31 32 33 34 35 36 37 38 39 40 41 42 43 44 45 46 47 48 49 50
000
ASUS43 KTOP 082108
RWRKS

WEATHER ROUNDUP FOR KANSAS
NATIONAL WEATHER SERVICE GOODLAND KS
300 PM CST THU DEC 08 2016

NOTE:  "FAIR" INDICATES FEW OR NO CLOUDS BELOW 12,000 FEET WITH NO
SIGNIFICANT WEATHER AND/OR OBSTRUCTIONS TO VISIBILITY.

KSZ001>006-013>018-027>032-041>047-082200-
NORTHWEST KANSAS

CITY           SKY/WX    TMP DP  RH WIND       PRES   REMARKS
GOODLAND       SUNNY     17   4  56 VRB3      30.49F
HAYS           SUNNY     24   6  46 N13       30.61F WCI  12
HILL CITY      SUNNY     22   3  44 N8        30.61F
RUSSELL        SUNNY     25   6  44 N14G21    30.61F WCI  13
$$

KSZ061>065-074>080-084>089-082200-
SOUTHWEST KANSAS

CITY           SKY/WX    TMP DP  RH WIND       PRES   REMARKS
DODGE CITY     SUNNY     23   4  44 N5        30.59F
ELKHART          N/A     23  -2  33 SE5         N/A
GARDEN CITY    SUNNY     23   4  44 NE6       30.56F
GREAT BEND     SUNNY     26   7  44 N10       30.62F WCI  16
LIBERAL        CLOUDY    27   3  36 N3        30.56F
PRATT          SUNNY     25   0  33 N12G22    30.61F WCI  14
$$

KSZ066>073-081>083-090>101-082200-
SOUTHEAST KANSAS

CITY           SKY/WX    TMP DP  RH WIND       PRES   REMARKS
CHANUTE        SUNNY     29  15  56 N12       30.63S WCI  19
COFFEYVILLE    SUNNY     32  12  43 NW13      30.65F WCI  22
HUTCHINSON     SUNNY     30   5  34 N9        30.63S
MEDICINE LODGE   N/A     29   3  33 N8        30.64F
NEWTON         SUNNY     25  11  55 N14       30.62F WCI  13
PARSONS        SUNNY     31  12  45 NW10      30.64F WCI  22
WICHITA INTL   MOSUNNY   30   7  37 N12       30.63F WCI  20
WICHITA JABRA  SUNNY     27   9  46 NW9       30.63S
WICHITA MCCONL SUNNY     29   6  38 NW12      30.63S WCI  19
WINFIELD       SUNNY     31   6  35 N8        30.65F
$$

KSZ007>012-019>026-033>040-048>060-102>105-082200-
NORTHEAST KANSAS

CITY           SKY/WX    TMP DP  RH WIND       PRES   REMARKS
CONCORDIA      SUNNY     25   9  50 NW12      30.63F WCI  14
EMPORIA        SUNNY     27  11  51 NW13      30.62F WCI  16
LAWRENCE       MOSUNNY   25  13  60 NW12      30.63S WCI  14
MANHATTAN      SUNNY     28  10  46 VRB7      30.65S
MARYSVILLE     SUNNY     27  10  50 N10       30.62S WCI  17
OLATHE IND     MOSUNNY   26  12  55 NW14      30.61S WCI  14
OLATHE EXE     MOSUNNY   25  11  55 NW13      30.59F WCI  14
SALINA         SUNNY     27  10  49 NW12      30.66S WCI  17
TOPEKA BILLARD SUNNY     27  12  53 NW12      30.63F WCI  17
TOPEKA FORBES  MOSUNNY   28  12  51 W12       30.62S WCI  18
$$



USA.gov is the U.S. government's official web portal to all federal, state and local government web resources and services.